Home   Weather   Gloucester   Past weeks

Flag for USA Past Weather in Gloucester, Massachusetts, USA — Yesterday and Last 2 Weeks

Now
67 °F

Clear.


Feels Like: 67 °F
Forecast: 64 / 72 °F
Wind: No wind

Location: Beverly Municipal Airport

Current Time: Aug 17, 2017 at 9:31:12 pm

Latest Report: Aug 17, 2017 at 8:53 pm


Visibility: 10 mi

Pressure: 29.96 "Hg

Humidity: 71%

Dew Point: 57 °F

Location of GloucesterLocation

Past Weather in Gloucester — Graph

°F

Gloucester Temperature Yesterday

Maximum temperature yesterday: 83 °F (at 12:53 pm)
Minimum temperature yesterday: 61 °F (at 11:53 pm)
Average temperature yesterday: 72 °F

High & Low Weather Summary for the Past Weeks

 TemperatureHumidityPressure
High85 °F (Aug 13, 3:53 pm)100% (Aug 3, 12:53 am)30.23 "Hg (Aug 3, 12:53 am)
Low53 °F (Aug 17, 5:53 am)36% (Aug 17, 5:53 pm)29.78 "Hg (Aug 5, 6:53 pm)
Average70 °F76%29.99 "Hg
* Reported Aug 2 7:53 pm — Aug 17 7:53 pm, Gloucester. Weather by CustomWeather, © 2017

Note: Actual official high and low records may vary slightly from our data, if they occured in-between our weather recording intervals... More about our weather records

Advertising

Gloucester Weather History for the Previous 24 Hours

Scroll right to see more
 ConditionsComfort  
Time TempWeatherWind HumidityBarometerVisibility
7:53 pm
Thu, Aug 17
71 °FClear.3 mph57%29.95 "Hg10 mi
6:53 pm74 °FSunny.5 mph46%29.94 "Hg10 mi
5:53 pm80 °FSunny.7 mph36%29.94 "Hg10 mi
4:53 pm81 °FSunny.9 mph37%29.94 "Hg10 mi
3:53 pm81 °FPassing clouds.13 mph38%29.95 "Hg10 mi
2:53 pm81 °FSunny.7 mph37%29.96 "Hg10 mi
1:53 pm81 °FSunny.10 mph37%29.98 "Hg10 mi
12:53 pm79 °FScattered clouds.10 mph38%30.00 "Hg10 mi
11:53 am77 °FScattered clouds.7 mph40%30.01 "Hg10 mi
10:53 am76 °FSunny.7 mph45%30.03 "Hg10 mi
9:53 am72 °FPartly sunny.6 mph52%30.04 "Hg10 mi
8:53 am67 °FPartly sunny.7 mph59%30.04 "Hg10 mi
7:53 am63 °FPartly sunny.No wind70%30.05 "Hg10 mi
6:53 am56 °FPartly sunny.No wind84%30.03 "Hg10 mi
5:53 am53 °FSunny.No wind89%30.02 "Hg10 mi
4:53 am55 °FClear.No wind77%30.01 "Hg10 mi
3:53 am56 °FClear.6 mph77%30.01 "Hg10 mi
2:53 am58 °FClear.No wind72%30.01 "Hg10 mi
1:53 am60 °FClear.3 mph67%30.00 "Hg10 mi
12:53 am61 °FClear.6 mph65%29.99 "Hg10 mi
11:53 pm
Wed, Aug 16
61 °FClear.7 mph62%29.99 "Hg10 mi
10:53 pm63 °FPassing clouds.5 mph63%29.99 "Hg10 mi
9:53 pm66 °FClear.5 mph65%29.97 "Hg10 mi
Weather by CustomWeather, © 2017

See weather overviewHow to use our weather pages